CZ-4 DEB

Satellite information

Favourite Embed

Satellite Type and Status

DEBRISIN ORBIT

Key statistics

Satellite CZ-4 DEB at a glance.

Uptime

9557

Days in orbit

Revolutions

≈ 14.5

Per day

Orbit

SSO

Sun Synchronous Orbit

Inclination

98.6

Latest

Satellite identification and parameters

Extended collection of information and parameters for CZ-4 DEB.

Object identification

Identified? True

Debris? True

Object name: CZ-4 DEB

International designator: 1999-057GT

Object number (NORAD): 26310

Object ID (CCSDS): 26310

Country: PEOPLES REPUBLIC OF CHINA (PRC)

Current information (Y/N): Y

RCS size: SMALL

Orbital parameters

Period: 99.459 minutes

Inclination: 98.554 deg

SMA: 7110.854 km

Apoapsis: 795.732 km

Periapsis: 669.705 km

RAAN: 46.5522 deg

Eccentricy: 0.00886156

Argument of periapsis: 232.5624 deg

Mean anomaly: 150.3023 deg

Mean motion: 14.47838603 rev/day

Mean motion (dot): 0.00002765 rev/day2

B* drag term: 0.00072381083 1/REarth

Two-line elements (TLE)

Creation date: Dec. 12, 2025, 10:14 a.m.

Reference frame: TEME

Reference center: EARTH

Epoch: Dec. 12, 2025, 2:12 a.m. UTC

TLE line 0: 0 CZ-4 DEB

TLE line 1: 1 26310U 99057GT 25346.09217010 .00002765 00000-0 72381-3 0 9996

TLE line 2: 2 26310 98.5540 46.5522 0088616 232.5624 150.3023 14.47838603350132

Live tracking on map

Real-time ground track for satellite CZ-4 DEB.

In-orbit conjunctions

A list of the most updated potential collisions computed for object CZ-4 DEB.

Target Orbit TCA Probability of collision Miss distance Type
IRIDIUM 33 DEB LEO 2024-11-13 00:30:49 0.0004120831 516.0 (m) DEBRIS
THOR BURNER 2 R/B SSO 2024-11-09 10:27:56 0.0007952688 811.0 (m) ROCKET BODY

Associated space launch

The CBERS (China Brazil Earth Resources Satellite) or ZY 1 (Zi Yuan) satellites are designed for global coverage and include cameras to make optical observations and a data collecting system to gather data on the environment. They are unique systems due to the use of on-board sensors which combine features that are especially designed to resolve the broad range of space and time scales involved in the monitoring and preservation of the ecosystem. They are operated jointly by the China Centre for Resources Satellite Data and Application (CRESDA) and the Brazilian INPE (Instituto Nacional de Pesquisas Espaciais, National Institute of Space Research).

CZ-4 DEB was lifted into orbit during the mission ‘Long March 4B | Zi Yuan 1-1’, on board a Long March 4B space rocket.

The launch took place on Oct. 14, 1999, 3:15 a.m. from Launch Complex 7.

For more information about the launch, click the button.

Launch to space Long March 4B | Zi Yuan 1-1
Long March 4B | Zi Yuan 1-1

Agency: N/A

Status: Launch Successful

Launch date: Oct. 14, 1999, 3:15 a.m. UTC

Rocket: Long March 4B

Launch pad: Launch Complex 7

Location: Taiyuan Satellite Launch Center, People's Republic of China

...

Latest news about this satellite

There are no fresh news available about this satellite. Check back as we update our databases every day.


Newsletter sign-up

Weekly statistics, charts and insights to help you stay on top of the space industry.